Date String (YYYY-MM-DD hh:mm:ss) UTC,Instrument flags,Ambient pressure (hPa),Sample flow (lpm),Bypass flow (lpm),Sample temperature (°C),Ambient temperature (°C),ASC tube jacket temperature (°C),LED temperature (°C),Box temperature (°C),Sample RH (%),Span deviation,Mass concentration (μg/m³),Mass concentration (μg/m³),Mass concentration (μg/m³)
DateTimeUTC,F1_M11,P_M11,Q1_M11,Q2_M11,T1_M11,T2_M11,T3_M11,T4_M11,T5_M11,U1_M11,ZSPAN_M11,X2_M11,X0_M11,X1_M11
2023-03-10 10:00:00,,0823.0,5.03,0.00,22.2,21.4,00.0,30.9,24.0,15.3,-000.6,0009.77,0013.05,0009.38
2023-03-10 10:01:00,,0822.8,4.98,0.00,22.3,22.4,00.0,30.9,24.2,15.3,-000.8,0009.80,0012.99,0009.41
2023-03-10 10:02:00,,0822.6,5.03,0.00,22.4,22.9,00.0,31.0,24.4,15.3,-001.0,0009.79,0012.89,0009.44
2023-03-10 10:03:00,,0822.4,4.95,0.00,22.4,22.5,00.0,31.0,24.3,15.3,-001.1,0009.80,0012.96,0009.46
2023-03-10 10:04:00,,0822.4,5.00,0.00,22.4,22.1,00.0,31.0,24.2,15.3,-001.1,0009.82,0013.03,0009.49
2023-03-10 10:05:00,,0822.6,5.00,0.00,22.4,21.7,00.0,31.1,24.2,15.3,-001.0,0009.79,0012.93,0009.47
2023-03-10 10:06:00,,0822.7,5.00,0.00,22.4,21.5,00.0,31.1,24.1,15.3,-000.9,0009.77,0013.05,0009.46
2023-03-10 10:07:00,,0822.6,5.00,0.00,22.4,21.2,00.0,31.1,24.1,15.4,-000.8,0009.77,0013.38,0009.46
2023-03-10 10:08:00,,0822.4,5.00,0.00,22.4,21.0,00.0,31.1,24.0,15.4,-000.5,0009.74,0013.34,0009.44
2023-03-10 10:09:00,,0822.3,5.01,0.00,22.3,20.8,00.0,31.1,24.0,15.5,-000.0,0009.72,0013.26,0009.45
2023-03-10 10:10:00,,0822.5,4.99,0.00,22.3,20.8,00.0,31.1,24.0,15.5,0000.3,0009.71,0013.19,0009.44
2023-03-10 10:11:00,,0822.7,5.01,0.00,22.3,20.7,00.0,31.1,24.0,15.6,0000.4,0009.68,0013.60,0009.41
2023-03-10 10:12:00,,0822.8,5.00,0.00,22.3,20.5,00.0,31.0,23.9,15.6,0000.7,0009.69,0014.06,0009.38
2023-03-10 10:13:00,,0822.7,5.00,0.00,22.2,20.3,00.0,31.0,23.8,15.7,0000.9,0009.70,0014.10,0009.37
2023-03-10 10:14:00,,0822.6,5.01,0.00,22.2,20.1,00.0,31.0,23.7,15.8,0001.1,0009.72,0014.10,0009.38
2023-03-10 10:15:00,,0822.5,5.02,0.00,22.1,20.7,00.0,31.0,23.8,15.8,0001.1,0009.70,0013.99,0009.37
2023-03-10 10:16:00,,0822.5,4.99,0.00,22.2,21.9,00.0,31.0,24.1,15.8,0000.8,0009.73,0014.02,0009.39
2023-03-10 10:17:00,,0822.7,5.01,0.00,22.4,22.8,00.0,31.0,24.4,15.7,0000.7,0009.74,0013.87,0009.40
2023-03-10 10:18:00,,0822.7,5.02,0.00,22.4,22.5,00.0,31.0,24.3,15.6,0000.9,0009.78,0013.64,0009.41
2023-03-10 10:19:00,,0822.6,5.00,0.00,22.4,21.8,00.0,31.0,24.1,15.7,0000.5,0009.79,0013.65,0009.43
2023-03-10 10:20:00,,0822.5,5.00,0.00,22.3,21.2,00.0,31.0,23.9,15.8,-000.0,0009.81,0013.69,0009.45
2023-03-10 10:21:00,,0822.4,5.01,0.00,22.2,20.8,00.0,31.0,23.8,15.9,-000.2,0009.84,0013.96,0009.47
2023-03-10 10:22:00,,0822.4,5.00,0.00,22.2,20.6,00.0,31.0,23.8,16.0,-000.3,0009.89,0013.87,0009.52
2023-03-10 10:23:00,,0822.5,5.00,0.00,22.2,20.4,00.0,31.0,23.7,16.0,-000.3,0009.93,0013.35,0009.57
2023-03-10 10:24:00,,0822.6,5.00,0.00,22.1,20.2,00.0,31.0,23.7,16.0,-000.6,0009.97,0013.40,0009.61
2023-03-10 10:25:00,,0822.6,5.01,0.00,22.1,20.1,00.0,31.0,23.6,16.1,-001.0,0009.99,0013.43,0009.63
2023-03-10 10:26:00,,0822.6,4.99,0.00,22.0,19.9,00.0,30.9,23.4,16.2,-000.7,0010.03,0013.50,0009.65
2023-03-10 10:27:00,,0822.5,4.99,0.00,21.9,19.7,00.0,30.9,23.3,16.3,-000.6,0010.07,0013.57,0009.68
2023-03-10 10:28:00,,0822.2,5.02,0.00,21.9,20.6,00.0,30.8,23.5,16.4,-000.4,0010.09,0013.57,0009.71
2023-03-10 10:29:00,,0822.1,4.99,0.00,22.0,21.9,00.0,30.8,23.9,18.8,-000.6,0010.09,0013.52,0009.73
2023-03-10 10:30:00,,0822.0,5.02,0.00,22.2,22.7,00.0,30.9,24.1,21.5,-000.8,0010.11,0013.54,0009.74
2023-03-10 10:31:00,,0822.4,4.98,0.00,22.2,22.4,00.0,30.9,24.1,18.3,-000.7,0010.09,0013.48,0009.73
2023-03-10 10:32:00,,0822.6,5.00,0.00,22.2,21.8,00.0,30.9,24.0,16.8,-001.0,0010.07,0013.37,0009.72
2023-03-10 10:33:00,,0822.6,4.99,0.00,22.1,21.2,00.0,30.9,23.7,16.6,-001.0,0010.05,0013.10,0009.71
2023-03-10 10:34:00,,0822.2,5.00,0.00,22.1,20.7,00.0,30.9,23.6,16.5,-001.0,0010.02,0013.05,0009.70
2023-03-10 10:35:00,,0821.9,5.00,0.00,22.0,20.4,00.0,30.9,23.5,16.5,-001.0,0010.00,0012.99,0009.69
2023-03-10 10:36:00,,0822.1,5.00,0.00,21.9,20.1,00.0,30.9,23.4,16.5,-000.8,0010.02,0013.09,0009.70
2023-03-10 10:37:00,,0822.4,4.99,0.00,21.9,19.9,00.0,30.9,23.4,16.4,-000.9,0009.98,0013.03,0009.68
2023-03-10 10:38:00,,0822.5,5.01,0.00,21.8,19.8,00.0,30.8,23.3,16.5,-000.9,0009.94,0012.96,0009.66
2023-03-10 10:39:00,,0822.4,5.00,0.00,21.8,19.6,00.0,30.8,23.1,16.6,-000.9,0009.94,0013.00,0009.65
2023-03-10 10:40:00,,0822.2,5.01,0.00,21.7,20.1,00.0,30.7,23.3,16.6,-001.1,0009.96,0013.07,0009.66
2023-03-10 10:41:00,,0822.1,4.99,0.00,21.8,21.4,00.0,30.7,23.6,16.5,-000.8,0010.01,0013.30,0009.70
2023-03-10 10:42:00,,0822.1,4.99,0.00,22.0,22.3,00.0,30.7,23.9,16.4,-000.8,0010.06,0013.45,0009.72
2023-03-10 10:43:00,,0822.1,5.03,0.00,22.0,22.0,00.0,30.8,23.9,16.3,-000.5,0010.08,0013.43,0009.75
2023-03-10 10:44:00,,0822.1,4.98,0.00,22.0,21.6,00.0,30.8,23.8,16.3,-000.5,0010.12,0013.47,0009.77
2023-03-10 10:45:00,,0822.2,5.00,0.00,22.0,21.3,00.0,30.8,23.8,16.3,-000.7,0010.17,0013.57,0009.81
2023-03-10 10:46:00,,0822.3,5.01,0.00,22.0,21.0,00.0,30.8,23.7,16.3,-000.4,0010.19,0013.56,0009.82
2023-03-10 10:47:00,,0822.4,5.00,0.00,22.0,20.7,00.0,30.8,23.7,16.3,-000.4,0010.20,0013.48,0009.86
2023-03-10 10:48:00,,0822.4,5.00,0.00,22.0,20.4,00.0,30.8,23.6,16.3,-000.3,0010.27,0013.56,0009.92
2023-03-10 10:49:00,,0822.3,5.00,0.00,21.9,20.2,00.0,30.8,23.4,16.4,-000.5,0010.32,0013.63,0009.96
2023-03-10 10:50:00,,0822.1,5.01,0.00,21.9,20.0,00.0,30.8,23.4,16.5,-000.5,0010.37,0013.73,0010.00
2023-03-10 10:51:00,,0822.1,5.01,0.00,21.8,19.9,00.0,30.7,23.4,16.5,-000.4,0010.38,0013.80,0010.03
2023-03-10 10:52:00,,0822.1,5.01,0.00,21.8,19.8,00.0,30.7,23.3,16.5,-000.2,0010.35,0013.57,0010.03
2023-03-10 10:53:00,,0822.1,5.00,0.00,21.8,20.5,00.0,30.7,23.5,16.6,0000.1,0010.38,0013.53,0010.07
2023-03-10 10:54:00,,0822.1,5.00,0.00,21.9,21.9,00.0,30.7,23.8,16.5,-000.1,0010.39,0013.52,0010.08
2023-03-10 10:55:00,,0822.1,5.01,0.00,22.1,22.7,00.0,30.7,24.0,16.4,-000.3,0010.40,0013.50,0010.09
2023-03-10 10:56:00,,0822.1,4.99,0.00,22.1,22.4,00.0,30.7,24.0,16.3,-000.1,0010.43,0013.86,0010.10
2023-03-10 10:57:00,,0822.0,4.98,0.00,22.1,21.9,00.0,30.8,23.9,16.3,0000.0,0010.51,0014.41,0010.14
2023-03-10 10:58:00,,0822.1,5.01,0.00,22.1,21.4,00.0,30.8,23.8,16.3,0000.0,0010.55,0014.50,0010.16
2023-03-10 10:59:00,,0822.4,5.00,0.00,22.1,21.0,00.0,30.8,23.8,16.3,-000.3,0010.56,0014.53,0010.16
